CAPE
2728 2141 2034 2331 1767 1222 409 9 9 119 574 679 906 957 745 878 478 173 88 13 20 38 17 16 11 16 22 22 22 22 21 14 15 20 21 15 12 3 14 17 23 26 33
1924 1592 1553 1134 1346 1034 424 78 276 229 127 120 307 594 719 563 325 118 59 30 15 30 32 18 15 21 27 24 20 21 27 19 26 22 13 18 19 23 17 5 11 15 17
1495 1385 1134 561 518 296 300 85 20 17 7 15 35 76 148 306 222 130 47 39 27 16 28 41 27 20 18 24 25 21 10 20 18 22 15 15 14 24 19 32 30 29 34
1307 1316 1163 428 1 3 4 3 17 22 20 32 35 26 20 54 171 116 61 42 35 37 30 31 42 34 29 30 20 10 15 29 21 17 19 15 14 27 27 28 13 20 25
1229 1177 974 150 2 3 4 2 1 2 16 14 0 0 0 1 38 78 90 42 69 35 40 28 26 38 44 27 22 28 33 25 16 16 24 20 16 26 33 27 25 22 20
1196 1768 965 2 2 2 2 9 7 15 11 10 0 0 2 3 27 35 114 64 58 46 36 28 34 35 37 42 35 34 37 29 27 22 27 21 23 35 48 43 35 35 34
1353 996 380 3 2 2 2 6 9 4 12 16 1 2 2 0 1 30 10 68 50 40 24 34 31 39 44 40 46 38 31 40 41 28 18 19 18 25 36 31 24 20 26
474 219 9 1 1 2 1 2 7 6 3 10 0 1 3 1 1 0 1 13 92 27 17 21 22 35 35 33 53 64 45 43 23 20 17 18 10 6 13 21 24 35 38
195 165 5 1 3 2 2 2 3 9 1 7 3 2 0 1 1 2 1 1 9 44 21 20 29 36 33 33 50 44 26 27 20 15 15 17 18 17 19 16 20 29 26
8 2 13 1 2 2 2 1 5 3 0 2 2 0 0 0 0 1 1 3 0 1 18 12 57 55 38 56 53 7 1 3 27 16 21 15 16 24 13 11 25 22 14
41 7 12 1 4 1 2 2 5 12 2 5 1 4 2 1 0 0 0 3 3 1 0 0 12 82 44 51 34 0 0 5 9 21 17 27 18 11 25 29 30 33 35
7 31 0 1 23 2 4 3 3 6 0 0 10 3 1 2 3 0 0 0 0 2 1 0 0 28 58 24 17 0 0 3 9 30 38 23 19 23 28 31 26 18 24
69 17 32 8 95 6 35 17 1 2 6 2 0 1 1 1 0 0 0 0 0 2 1 1 0 0 15 33 0 0 0 3 6 14 26 31 31 28 26 21 19 39 33
66 108 121 71 40 7 22 19 27 1 2 1 6 2 0 19 0 0 0 0 0 3 3 2 2 0 0 29 1 0 3 0 1 6 13 18 28 33 28 39 20 13 13
81 117 97 101 140 95 82 64 98 33 1 1 1 2 5 4 0 0 0 0 0 0 2 4 1 0 0 0 0 15 16 0 0 1 1 1 2 11 15 9 13 13 17
70 160 163 148 191 146 164 146 121 191 62 5 2 2 0 0 0 0 0 0 0 0 0 2 3 0 0 0 0 4 16 0 0 0 0 0 0 0 2 7 14 13 9
24 49 34 36 106 125 114 155 119 121 39 2 2 0 0 0 0 0 0 0 0 0 0 3 0 1 0 0 0 0 0 5 0 0 0 0 0 0 0 2 10 12 9
8 6 6 8 10 99 120 134 90 128 91 101 23 14 0 1 0 0 0 0 0 0 0 0 0 0 1 0 0 0 0 0 2 0 0 0 0 0 0 0 1 4 5
6 6 4 7 4 2 5 59 174 87 125 274 211 24 7 3 2 0 0 0 0 0 0 0 1 0 5 0 0 0 0 0 0 0 0 0 0 0 0 0 0 0 0
5 6 6 10 12 3 9 8 2 70 65 95 224 39 1 0 1 5 0 0 0 0 0 0 0 1 2 2 1 2 2 0 4 2 1 0 1 1 3 2 2 2 2
9 8 14 14 13 10 4 6 7 4 46 209 9 14 0 0 0 1 0 0 0 0 0 0 0 0 0 0 0 0 0 3 4 9 9 11 23 22 17 5 2 3 3
6 9 11 9 9 5 0 0 0 5 7 5 89 18 26 0 0 0 0 0 0 0 0 0 0 0 0 0 0 1 3 4 10 13 14 21 35 33 36 27 1 3 2
9 10 10 8 4 4 0 0 0 16 12 12 4 16 7 0 0 0 0 0 0 0 0 0 0 0 0 1 1 2 3 3 7 16 11 22 46 28 35 9 3 4 4
8 10 8 4 8 4 0 0 0 11 24 14 5 6 0 0 0 0 0 0 0 0 0 0 0 0 0 1 3 1 3 1 11 14 13 15 29 35 17 10 6 5 3
11 3 5 4 4 5 0 0 1 8 12 9 27 2 80 1 0 0 0 0 0 0 0 0 0 0 0 0 0 0 2 10 11 24 26 13 34 28 34 20 10 4 3
4 7 2 4 3 8 1 1 2 7 9 6 4 1 1 2 0 0 0 0 0 0 0 0 0 0 1 0 1 0 5 6 11 20 39 11 26 36 22 41 25 12 8
CIN
-1 -0 -2 -0 -0 -8 -79 -69 -51 -88 -44 -23 -0 -0 -4 -0 -4 -18 -80 -21 -11 -0 -0 -0 -0 -0 -0 -0 -0 -0 -0 -0 -0 -0 -0 -0 -0 -0 -0 -0 -0 -0 -0
-32 -34 -9 -38 -5 -11 -66 -110 -34 -50 -78 -74 -9 -1 -0 -0 -0 -19 -96 -103 -14 -2 -0 -0 -0 -0 -0 -0 -0 -0 -0 -0 -0 -0 -0 -0 -0 -0 -0 -1 -0 -0 -0
-55 -54 -45 -86 -72 -78 -61 -80 -148 -7 -9 -89 -52 -19 -5 -0 -0 -2 -64 -116 -2 -12 -3 -0 -0 -0 -0 -0 -0 -0 -0 -0 -0 -0 -0 -0 -0 -0 -0 -0 -0 -0 -0
-68 -55 -41 -85 -0 -0 -0 -0 -0 -12 -28 -7 -1 -27 -25 -14 -1 -1 -15 -74 -143 -0 -8 -2 -0 -0 -0 -0 -0 -0 -0 -0 -0 -0 -0 -0 -0 -0 -0 -0 -0 -0 -0
-60 -59 -47 -189 -0 -0 -0 -0 -0 -0 -0 -0 -0 -0 -0 -68 -20 -2 -0 -32 -27 -0 -0 -6 -4 -1 -0 -0 -0 -0 -0 -0 -0 -0 -0 -0 -0 -0 -0 -0 -0 -0 -0
-44 -8 -25 -0 -0 -0 -0 -0 -0 -0 -0 -0 -0 -0 -0 -18 -48 -44 -2 -2 -8 -24 -0 -0 -0 -2 -2 -0 -0 -0 -0 -0 -0 -0 -0 -0 -0 -0 -0 -0 -0 -0 -0
-8 -31 -88 -0 -0 -0 -0 -0 -0 -0 -0 -0 -0 -0 -0 -0 -0 -1 -20 -4 -8 -22 -1 -0 -0 -0 -0 -1 -0 -0 -0 -0 -0 -0 -0 -0 -0 -0 -0 -0 -0 -0 -0
-61 -108 -156 -0 -0 -0 -0 -0 -0 -0 -0 -0 -0 -0 -0 -0 -0 -0 -0 -32 -1 -32 -14 -0 -0 -0 -0 -0 -0 -0 -0 -0 -0 -0 -0 -0 -0 -2 -1 -0 -0 -0 -0
-97 -90 -152 -0 -0 -0 -0 -0 -0 -0 -0 -0 -0 -0 -0 -0 -0 -0 -0 -0 -57 -6 -35 -1 -0 -0 -0 -0 -1 -1 -8 -1 -0 -0 -0 -0 -0 -0 -0 -0 -0 -0 -0
-0 -31 -144 -0 -0 -0 -0 -0 -0 -0 -2 -0 -0 -0 -0 -0 -0 -0 -0 -0 -0 -1 -19 -6 -0 -0 -1 -0 -1 -4 -35 -11 -3 -0 -0 -0 -0 -0 -0 -0 -0 -0 -0
-6 -2 -0 -0 -0 -0 -0 -0 -0 -0 -1 -0 -0 -0 -0 -0 -0 -0 -0 -0 -0 -0 -0 -1 -8 -0 -0 -0 -0 -1 -0 -22 -9 -0 -0 -0 -0 -0 -0 -0 -0 -0 -0
-0 -5 -0 -0 -0 -0 -0 -0 -0 -0 -1 -1 -0 -0 -0 -0 -0 -0 -0 -0 -0 -0 -0 -0 -1 -9 -0 -0 -0 -0 -0 -22 -9 -2 -0 -0 -0 -0 -0 -0 -0 -0 -0
-0 -4 -16 -0 -0 -5 -2 -2 -0 -0 -0 -0 -1 -1 -1 -0 -0 -0 -0 -0 -0 -0 -0 -0 -0 -3 -2 -0 -0 -0 -0 -30 -13 -7 -0 -0 -0 -0 -0 -0 -0 -0 -0
-0 -0 -0 -1 -8 -19 -13 -23 -19 -0 -0 -1 -0 -2 -2 -0 -0 -0 -0 -0 -0 -0 -0 -0 -0 -0 -0 -0 -1 -0 -16 -0 -23 -19 -11 -2 -1 -0 -0 -0 -0 -0 -0
-2 -0 -0 -2 -7 -20 -13 -16 -4 -38 -8 -0 -0 -2 -0 -1 -0 -0 -0 -0 -0 -0 -0 -0 -0 -0 -0 -6 -0 -0 -0 -0 -0 -23 -21 -14 -3 -1 -0 -0 -0 -0 -0
-11 -0 -0 -0 -0 -0 -0 -1 -21 -0 -15 -0 -0 -0 -0 -0 -0 -2 -0 -0 -0 -0 -0 -0 -0 -0 -0 -0 -0 -3 -0 -0 -0 -0 -0 -0 -8 -0 -1 -0 -0 -0 -0
-85 -52 -52 -37 -0 -1 -0 -0 -8 -0 -13 -10 -0 -0 -0 -0 -0 -0 -0 -0 -0 -0 -0 -0 -0 -0 -0 -0 -2 -0 -0 -0 -0 -0 -0 -0 -0 -0 -6 -4 -2 -0 -0
-0 -0 -0 -0 -2 -2 -0 -3 -0 -2 -1 -2 -30 -0 -0 -0 -0 -0 -0 -0 -0 -0 -0 -0 -0 -0 -1 -0 -0 -0 -0 -0 -0 -0 -0 -0 -0 -0 -0 -0 -12 -7 -3
-0 -0 -0 -0 -0 -0 -0 -0 -0 -3 -0 -4 -0 -12 -0 -0 -0 -0 -0 -0 -0 -0 -0 -0 -0 -1 -0 -1 -0 -0 -0 -1 -0 -0 -0 -0 -0 -0 -0 -0 -0 -0 -0
-0 -0 -0 -0 -0 -0 -0 -0 -0 -5 -13 -1 -0 -2 -0 -0 -0 -0 -0 -0 -0 -0 -0 -0 -0 -0 -0 -0 -0 -0 -0 -1 -0 -0 -0 -0 -0 -0 -0 -0 -0 -0 -0
-0 -0 -0 -0 -0 -0 -0 -0 -0 -0 -30 -7 -64 -10 -3 -0 -0 -0 -0 -0 -0 -0 -0 -0 -0 -0 -0 -0 -0 -0 -0 -0 -1 -0 -0 -0 -0 -0 -0 -0 -0 -0 -0
-0 -0 -0 -0 -0 -0 -0 -0 -0 -0 -0 -0 -46 -78 -25 -0 -0 -0 -0 -0 -0 -0 -0 -0 -0 -0 -0 -0 -0 -0 -0 -0 -0 -0 -0 -0 -0 -0 -0 -0 -0 -0 -0
-0 -0 -0 -0 -0 -0 -1 -0 -0 -0 -0 -0 -0 -70 -20 -0 -0 -0 -0 -0 -0 -0 -0 -0 -0 -0 -0 -0 -0 -0 -0 -0 -0 -0 -0 -0 -0 -0 -0 -0 -0 -0 -0
-0 -0 -0 -0 -0 -0 -0 -1 -0 -0 -0 -0 -0 -0 -11 -0 -0 -0 -0 -0 -0 -0 -0 -0 -0 -0 -0 -0 -0 -0 -0 -0 -0 -0 -0 -0 -0 -0 -0 -0 -0 -0 -0
-0 -0 -0 -0 -0 -0 -1 -0 -0 -0 -0 -0 -0 -1 -1 -0 -0 -0 -0 -0 -0 -0 -0 -0 -0 -0 -0 -0 -0 -0 -0 -0 -0 -0 -0 -0 -0 -0 -0 -0 -0 -0 -0
-0 -0 -0 -0 -0 -0 -0 -0 -0 -0 -0 -0 -0 -0 -0 -0 -0 -0 -0 -0 -0 -0 -0 -0 -0 -0 -0 -0 -0 -0 -0 -0 -0 -0 -0 -0 -0 -0 -0 -0 -0 -0 -0
Wind_Speed
10 9 9 9 11 9 10 10 9 10 10 7 9 9 12 13 11 7 9 12 16 19 20 19 19 20 20 19 18 17 17 15 16 16 16 15 16 16 17 18 17 17 17
9 10 9 8 7 8 9 9 6 7 5 5 5 7 11 11 12 11 11 11 14 17 18 20 21 21 22 21 19 18 17 17 16 17 16 17 16 15 17 17 17 17 17
12 11 9 9 8 7 12 9 7 5 5 4 5 4 6 9 11 11 13 12 12 14 18 18 20 21 21 21 20 19 19 17 17 17 17 17 16 15 18 18 19 19 19
15 13 10 8 8 8 9 9 5 4 5 7 4 4 2 4 7 10 12 11 12 12 12 17 18 19 20 22 21 20 20 19 18 17 17 17 17 15 17 18 19 18 19
16 13 10 8 12 9 10 12 12 15 9 9 7 6 3 2 2 7 9 12 11 12 11 15 17 17 18 20 21 22 21 20 19 18 17 18 17 16 16 18 19 18 18
13 14 10 11 13 12 10 9 12 13 12 11 8 7 2 4 5 4 7 7 10 12 12 15 13 12 17 18 21 22 22 22 22 20 19 18 18 18 19 19 20 20 20
13 12 9 11 12 13 14 15 12 16 11 14 9 6 3 3 1 6 8 8 11 10 11 13 12 10 11 18 20 23 23 23 23 21 19 17 17 18 19 18 18 18 19
10 9 9 11 14 11 13 15 16 10 4 14 8 10 4 0 1 1 4 8 11 10 12 13 14 16 14 11 17 22 23 23 23 22 20 19 17 16 16 17 17 17 18
8 11 12 11 13 12 13 17 17 20 11 13 14 8 5 4 3 1 4 7 12 9 12 14 14 13 14 12 17 17 19 19 21 22 20 20 18 18 19 19 18 17 18
7 5 9 13 14 13 15 17 15 15 13 14 8 3 7 6 7 3 1 5 4 11 12 10 12 16 14 13 15 14 17 15 19 22 20 20 20 19 19 18 18 18 18
8 5 7 6 9 9 14 18 18 18 13 15 12 10 5 4 6 4 8 5 1 3 6 9 10 10 12 13 12 15 17 17 18 18 20 20 19 19 19 20 20 20 19
2 7 6 8 13 5 9 13 17 19 15 14 14 14 14 12 11 8 5 7 6 3 3 2 6 9 10 11 15 19 18 15 16 18 19 19 20 20 19 20 19 18 18
5 6 6 7 9 6 7 13 11 14 17 16 18 14 14 13 11 10 10 8 5 3 1 4 3 2 8 9 13 19 19 14 15 17 17 16 17 19 19 18 18 19 19
8 10 12 13 14 11 9 4 4 9 14 15 20 17 13 13 10 11 12 12 7 4 2 3 1 2 6 9 16 19 14 15 15 17 16 15 14 15 17 18 18 17 17
8 13 14 14 15 15 14 13 11 14 10 10 13 16 13 12 11 12 12 15 15 8 6 5 4 3 3 8 17 16 17 16 14 14 16 16 16 14 15 17 18 16 18
8 11 13 13 16 15 15 13 11 14 13 11 10 13 13 9 11 11 11 14 13 12 10 4 3 6 6 7 17 14 15 18 18 14 14 16 17 15 14 16 15 16 17
9 11 9 9 12 11 12 11 14 13 14 13 13 13 14 13 11 10 10 13 13 13 14 4 4 9 8 11 11 12 16 14 13 16 16 14 15 17 14 14 13 15 15
9 9 10 11 10 10 13 12 13 15 16 16 15 16 15 11 15 16 13 15 14 14 13 15 11 12 12 13 11 15 12 11 13 16 19 17 16 17 16 14 13 13 13
10 10 10 10 10 10 9 10 15 11 14 19 20 18 18 18 18 13 13 14 13 11 14 15 11 12 12 12 15 13 12 12 11 21 19 18 18 19 18 17 16 15 15
9 9 9 11 9 11 11 10 8 12 12 14 17 16 18 20 20 20 16 17 14 13 12 15 16 15 13 14 13 15 13 11 12 12 16 15 17 19 19 19 17 16 16
9 9 10 9 9 9 8 10 10 9 12 16 13 17 17 21 27 24 16 17 17 15 14 13 14 14 13 16 18 14 13 12 12 12 11 11 10 10 11 16 16 17 17
10 10 10 11 10 6 8 10 12 12 12 12 14 14 17 22 26 30 30 30 27 19 16 15 15 20 20 18 15 17 17 17 14 10 13 11 10 9 10 9 18 18 18
9 10 11 12 13 14 10 11 13 14 13 12 13 14 15 14 21 20 25 28 30 34 32 24 22 24 22 22 20 20 20 19 13 13 14 12 10 9 9 10 19 19 18
8 9 9 11 11 11 13 15 16 14 14 14 13 14 17 16 19 19 20 19 21 21 22 18 25 26 22 24 23 20 19 17 14 13 14 12 12 10 10 11 20 20 19
7 9 9 11 12 13 15 16 15 11 12 12 14 14 16 15 20 26 20 19 19 16 17 19 20 29 33 38 26 17 16 15 16 15 14 12 10 10 8 10 12 20 20
10 8 10 11 13 13 14 15 15 8 10 8 9 12 16 16 23 25 21 20 19 17 16 11 12 14 21 24 35 24 21 20 19 13 12 9 14 13 8 9 10 11 11
Wind_Direction
197 185 201 200 199 174 191 194 196 198 181 192 189 196 196 204 181 171 153 159 149 157 156 152 151 145 139 134 131 129 126 124 119 119 107 102 101 103 99 95 89 85 88
193 194 194 189 187 175 183 186 189 176 162 159 205 216 215 200 188 173 149 163 156 158 159 155 151 148 141 136 134 132 129 128 125 117 115 108 103 101 101 100 101 95 92
200 192 191 185 181 172 176 173 147 130 138 163 172 204 228 208 195 181 158 158 160 159 159 158 155 152 146 143 139 140 135 128 125 121 118 115 110 101 106 103 97 94 95
199 203 197 183 153 158 151 136 105 95 184 173 177 151 223 227 198 189 173 155 169 165 157 154 152 154 152 146 145 144 136 135 132 130 127 120 117 108 109 108 105 103 97
199 196 195 171 158 167 172 173 190 179 186 162 143 117 121 119 268 195 178 160 174 167 166 153 154 156 154 153 148 145 144 138 132 132 131 124 122 113 115 112 107 104 103
210 204 193 160 165 168 177 182 168 178 170 156 138 110 4 168 176 192 189 171 172 166 169 165 156 157 156 159 152 151 144 142 140 136 130 128 124 114 111 111 108 103 101
202 198 191 166 168 181 182 180 178 172 164 154 125 84 74 73 112 209 182 171 180 171 174 173 180 158 160 158 161 153 151 146 140 137 135 132 125 116 113 109 108 107 102
203 192 184 177 175 177 177 180 174 162 145 174 159 155 153 215 244 339 250 174 180 172 179 175 191 163 164 165 164 159 153 147 144 142 136 134 135 130 122 118 112 110 110
217 206 194 184 181 183 184 181 178 180 166 184 175 154 153 176 149 142 324 199 174 181 178 185 178 174 169 168 158 153 149 150 144 144 147 140 142 140 137 129 123 115 112
296 264 214 196 197 188 188 186 186 181 166 183 186 150 114 130 157 166 131 308 176 178 186 177 180 182 164 160 156 145 137 140 143 150 143 145 146 139 130 133 129 121 119
234 348 282 260 220 212 204 184 185 191 177 181 183 177 163 155 150 144 183 179 80 340 183 167 184 181 164 156 145 139 133 129 143 149 150 148 149 144 147 132 132 129 124
334 263 255 309 302 235 208 215 193 189 178 182 193 183 190 180 180 166 150 156 153 67 27 14 179 188 169 157 153 145 137 132 141 149 148 151 148 142 138 133 132 128 126
242 225 227 249 243 237 259 236 201 211 189 186 187 190 194 203 174 177 154 162 147 111 59 344 6 248 167 165 136 153 132 141 139 143 146 149 150 144 140 135 141 129 120
272 239 240 231 219 209 215 222 248 236 207 194 192 194 194 197 175 175 161 156 132 126 159 170 78 305 197 163 150 149 141 133 140 136 137 134 130 134 137 139 133 129 124
277 269 255 250 242 237 222 200 204 205 205 204 209 198 198 192 181 188 184 171 163 156 166 192 133 219 227 161 152 159 154 129 112 134 135 134 127 122 130 128 124 127 130
276 277 270 253 253 241 229 213 213 220 204 197 198 209 194 184 183 183 177 176 179 177 164 162 157 163 171 161 163 150 150 135 114 116 121 122 127 124 124 125 131 134 134
294 290 285 299 277 248 249 230 218 208 207 209 199 187 186 175 177 175 182 181 176 170 166 135 133 158 154 157 163 150 149 150 127 116 117 117 118 118 114 120 129 132 130
293 297 301 300 289 276 242 232 239 222 207 207 201 194 189 172 184 179 176 182 180 177 155 143 158 167 156 160 147 145 150 149 146 132 124 125 119 113 113 109 108 112 115
319 314 298 294 301 301 301 290 232 233 225 222 209 200 182 181 178 183 187 183 179 176 159 150 151 162 160 156 145 143 147 144 140 135 126 125 122 124 121 123 124 123 118
308 300 315 295 285 281 278 283 291 249 230 237 228 208 197 188 185 182 184 180 172 157 166 156 151 157 162 161 154 146 147 145 141 143 143 135 140 139 139 140 141 140 135
308 307 286 283 283 287 274 277 286 289 282 228 235 213 200 189 190 187 178 177 172 163 158 153 151 157 168 167 168 157 142 143 147 145 139 143 147 147 146 152 146 147 146
322 315 301 302 301 302 323 313 297 278 277 288 229 218 210 190 195 188 187 180 172 168 165 159 166 166 177 173 163 160 152 153 150 167 143 146 157 157 157 164 150 149 152
307 306 312 320 319 311 314 304 292 287 271 265 273 226 208 203 188 190 190 177 179 174 170 170 172 173 174 177 164 168 167 159 153 152 149 145 158 149 159 141 149 154 154
311 306 301 305 303 299 305 297 290 283 272 260 250 267 208 205 184 182 183 179 184 186 179 183 176 176 176 171 175 164 159 143 130 145 150 143 158 153 156 150 160 159 154
302 308 305 308 308 302 307 298 296 288 270 254 254 255 207 183 185 177 174 177 182 188 192 198 191 178 173 165 160 149 157 148 147 157 168 139 149 144 152 148 160 161 158
307 312 308 305 302 300 304 296 297 282 262 247 245 244 220 191 174 176 176 177 179 181 165 164 150 150 162 165 162 164 156 155 152 153 167 142 146 150 146 164 160 165 163